Weather History for Bowling Green, KY

Change the Weather History Date:

Wednesday, May 8, 2013

  Actual Average Record
Temperature  
Mean Temperature 67 °F 64 °F  
Max Temperature 82 °F 76 °F 93 °F (1936)
Min Temperature 52 °F 53 °F 34 °F (1885)
Degree Days  
Heating Degree Days 0 3  
Month to date heating degree days 26 31  
Since 1 July heating degree days 3844 4000  
Cooling Degree Days 2 2  
Month to date cooling degree days 14 16  
Year to date cooling degree days 67 52  
Growing Degree Days 18 (Base 50)    
Moisture  
Dew Point 54 °F    
Average Humidity 70    
Maximum Humidity 100    
Minimum Humidity 40    
Precipitation  
Precipitation 0.00 in 0.18 in 1.59 in (1972)
Month to date precipitation 2.24 1.47  
Year to date precipitation 21.84 17.79  
Snow  
Snow 0.00 in 0.00 in 0.00 in ()
Month to date snowfall 0.0 0.0  
Since 1 July snowfall 3.8 9.1  
Snow Depth 0.00 in    
Sea Level Pressure  
Sea Level Pressure 29.99 in    
Wind  
Wind Speed 3 mph (WNW)    
Max Wind Speed 12 mph    
Max Gust Speed 17 mph    
Visibility 6 miles    
Events Fog    
T = Trace of Precipitation, MM = Missing Value Source: NWS Daily Summary

Daily Weather History Graph

Daily Weather History Graph

Search for Another Location

Airport:

Trip Planner

Search our weather history database for the weather conditions in past years. The results will help you decide how hot, cold, wet, or windy it might be!

Date:

Astronomy

May. 08, 2013 Rise Set
Actual Time 5:43 AM CDT 7:41 PM CDT
Civil Twilight 5:15 AM CDT 8:09 PM CDT
Nautical Twilight 4:40 AM CDT 8:44 PM CDT
Astronomical Twilight 4:03 AM CDT 9:21 PM CDT
Moon 4:49 AM CDT (5/8) 6:39 PM CDT (5/8)
Length of Visible Light 14h 54m
Length of Day
13h 57m
Waning Crescent, 2% of the Moon is Illuminated
May 8
Waning Crescent
May 9
New
May 17
First Quarter
May 24
Full
May 31
Last Quarter

Hourly Weather History & Observations

Time (CDT) Temp. Heat Index Dew Point Humidity Pressure Visibility Wind Dir Wind Speed Gust Speed Precip Events Conditions
12:53 AM 60.1 °F - 55.0 °F 83% 29.97 in 10.0 mi Calm Calm - N/A   Partly Cloudy
1:53 AM 57.0 °F - 54.0 °F 89% 29.95 in 6.0 mi Calm Calm - N/A   Clear
2:13 AM 55.4 °F - 53.6 °F 94% 29.96 in 1.8 mi Calm Calm - N/A   Scattered Clouds
2:20 AM 55.4 °F - 53.6 °F 94% 29.95 in 1.0 mi Calm Calm - N/A   Mostly Cloudy
2:24 AM 57.2 °F - 53.6 °F 88% 29.95 in 2.0 mi Calm Calm - N/A   Mostly Cloudy
2:31 AM 57.2 °F - 53.6 °F 88% 29.95 in 9.0 mi Calm Calm - N/A   Overcast
2:53 AM 55.0 °F - 52.0 °F 89% 29.95 in 10.0 mi Calm Calm - N/A   Scattered Clouds
3:45 AM 55.4 °F - 53.6 °F 94% 29.96 in 1.8 mi Calm Calm - N/A   Clear
3:53 AM 54.0 °F - 53.1 °F 97% 29.96 in 1.8 mi Calm Calm - N/A   Clear
4:01 AM 53.6 °F - 51.8 °F 94% 29.96 in 3.0 mi Calm Calm - N/A   Clear
4:06 AM 53.6 °F - 51.8 °F 94% 29.96 in 1.5 mi Calm Calm - N/A   Clear
4:08 AM 53.6 °F - 51.8 °F 94% 29.96 in 0.8 mi Calm Calm - N/A   Clear
4:15 AM 53.6 °F - 51.8 °F 94% 29.97 in 0.2 mi Calm Calm - N/A Fog Fog
4:27 AM 53.6 °F - 50.0 °F 88% 29.96 in 1.0 mi Calm Calm - N/A   Clear
4:30 AM 53.6 °F - 51.8 °F 94% 29.96 in 2.5 mi Calm Calm - N/A   Clear
4:41 AM 53.6 °F - 50.0 °F 88% 29.97 in 1.2 mi Calm Calm - N/A   Partly Cloudy
4:43 AM 53.6 °F - 50.0 °F 88% 29.97 in 0.8 mi Calm Calm - N/A   Mist
4:51 AM 53.6 °F - 51.8 °F 94% 29.96 in 0.2 mi Calm Calm - N/A Fog Fog
4:53 AM 54.0 °F - 51.1 °F 90% 29.96 in 0.5 mi Calm Calm - N/A Fog Fog
4:57 AM 53.6 °F - 51.8 °F 94% 29.97 in 1.0 mi Calm Calm - N/A   Mist
4:59 AM 53.6 °F - 51.8 °F 94% 29.97 in 2.5 mi Calm Calm - N/A   Scattered Clouds
5:06 AM 53.6 °F - 51.8 °F 94% 29.97 in 10.0 mi Calm Calm - N/A   Scattered Clouds
5:53 AM 55.9 °F - 54.0 °F 93% 29.98 in 7.0 mi SW 5.8 mph - N/A   Clear
6:53 AM 57.9 °F - 55.0 °F 90% 30.01 in 8.0 mi SW 5.8 mph - N/A   Mostly Cloudy
7:53 AM 60.1 °F - 57.0 °F 90% 30.03 in 10.0 mi SW 4.6 mph - N/A   Overcast
8:53 AM 64.0 °F - 57.9 °F 80% 30.04 in 10.0 mi West 4.6 mph - N/A   Overcast
9:53 AM 69.1 °F - 57.9 °F 68% 30.04 in 10.0 mi North 5.8 mph - N/A   Overcast
10:53 AM 77.0 °F - 57.9 °F 52% 30.03 in 10.0 mi Variable 3.5 mph - N/A   Scattered Clouds
11:53 AM 79.0 °F - 55.9 °F 45% 30.03 in 10.0 mi North 8.1 mph - N/A   Partly Cloudy
12:53 PM 79.0 °F - 55.9 °F 45% 30.01 in 10.0 mi Variable 4.6 mph - N/A   Mostly Cloudy
1:53 PM 80.1 °F 80.2 °F 55.9 °F 43% 30.02 in 10.0 mi NW 5.8 mph - N/A   Overcast
2:53 PM 81.0 °F 80.8 °F 55.9 °F 42% 30.01 in 10.0 mi North 6.9 mph - N/A   Mostly Cloudy
3:53 PM 80.1 °F 80.9 °F 60.1 °F 50% 30.00 in 10.0 mi NW 3.5 mph - 0.01 in   Scattered Clouds
4:53 PM 82.0 °F 81.6 °F 55.9 °F 41% 29.99 in 10.0 mi NNW 4.6 mph - N/A   Partly Cloudy
5:53 PM 80.1 °F 80.2 °F 55.9 °F 43% 29.99 in 10.0 mi NNW 4.6 mph - N/A   Clear
6:53 PM 78.1 °F - 55.9 °F 46% 29.99 in 10.0 mi WNW 3.5 mph - N/A   Clear
7:53 PM 75.0 °F - 55.9 °F 51% 30.01 in 10.0 mi Calm Calm - N/A   Clear
8:53 PM 69.1 °F - 57.0 °F 65% 30.02 in 10.0 mi Calm Calm - N/A   Clear
9:53 PM 66.9 °F - 57.9 °F 73% 30.03 in 10.0 mi Calm Calm - N/A   Clear
10:53 PM 64.9 °F - 57.0 °F 75% 30.02 in 10.0 mi Calm Calm - N/A   Clear
11:53 PM 63.0 °F - 55.9 °F 78% 30.02 in 10.0 mi Calm Calm - N/A   Clear